[[{"header":{"parameterUnit":"m.s-1","parameterCategory":1,"la1":30.2991,"la2":30.254,"lo1":-89.0895,"lo2":-89.0444,"dy":0.0017,"dx":0.0017,"nx":28,"ny":28,"refTime":"2024-09-04T09:00:00:Z","depth":0,"parameterNumber":2,"parameterNumberName":"U-component_of_WINDS"},"data":[0,0,0,0,0,0,0,0,0,0,0,0,0,0,0,0,0,0,0,0,0,0,0,0,0,0,0,0,0,0,0,0,0,0,0,0,0,0,0,0,0,0,0,0,0,0,0,0,0,0,0,0,0,0,0,0,0,0,-8.0394,-8.0396,0,-8.0558,-8.0559,-8.0561,-8.0491,-8.0487,-8.0483,-8.0479,-8.0643,-8.0651,-8.0659,0,0,0,0,0,0,0,0,0,0,0,0,0,-8.0018,-8.0026,-8.0394,-8.0396,-8.0398,-8.0557,-8.056,-8.0562,-8.0492,-8.0487,-8.0482,-8.0477,-8.0641,-8.065,-8.066,0,0,0,0,0,0,0,0,0,0,0,0,0,-8.0182,-8.0028,-8.0393,-8.0382,-8.0383,-8.0557,-8.056,-8.0562,-8.0493,-8.0487,-8.0481,-8.0475,-8.0637,-8.0649,-8.0661,-8.0855,0,0,-8.0698,-8.0703,0,0,0,0,0,0,0,0,-8.0172,-8.0195,-8.0382,-8.0383,-8.0384,-8.0498,-8.0487,-8.066,-8.0494,-8.0451,-8.0479,-8.0472,-8.0599,-8.0614,-8.0658,-8.0862,-8.0869,-8.0699,-8.0706,-8.0712,-8.0715,0,0,0,0,0,0,0,-8.0161,-8.0188,-8.0458,-8.0385,-8.0386,-8.0368,-8.0385,-8.052,-8.0556,-8.0454,-8.0449,-8.047,-8.0599,-8.0646,-8.0661,-8.0872,-8.0699,-8.0709,-8.0717,-8.0722,-8.1243,-8.1249,0,0,0,0,0,0,-8.015,-8.0179,-8.0453,-8.0463,-8.0262,-8.038,-8.0398,-8.0467,-8.0555,-8.0562,-8.0475,-8.0466,-8.0629,-8.0647,-8.0667,-8.0897,-8.0711,-8.0723,-8.073,-8.1236,-8.1244,-8.1252,0,0,0,0,0,0,-8.0142,-8.0175,-8.0447,-8.032,-8.0353,-8.0393,-8.0471,-8.0474,-8.0521,-8.057,-8.0576,-8.0517,-8.0625,-8.065,-8.0809,-8.0902,-8.0728,-8.0739,-8.1229,-8.1239,-8.1248,-8.1362,0,0,0,0,0,0,-8.0132,-8.0173,-8.0247,-8.0322,-8.036,-8.0586,-8.0476,-8.0481,-8.0542,-8.0532,-8.0611,-8.0618,-8.0622,-8.0791,-8.0821,-8.0916,-8.0749,-8.122,-8.1233,-8.1245,-8.135,-8.1374,-8.1395,0,0,0,0,0,-8.0119,-8.0272,-8.0251,-8.0285,-8.0454,-8.0592,-8.0614,-8.0615,-8.055,-8.0625,-8.0657,-8.0616,-8.0889,-8.0808,-8.0841,-8.0941,-8.1214,-8.123,-8.1244,-8.1339,-8.1369,-8.1395,0,0,0,0,0,0,-8.0204,-8.0281,-8.0259,-8.0441,-8.0511,-8.058,-8.0673,-8.0647,-8.0736,-8.0722,-8.072,-8.0739,-8.0903,-8.0938,-8.0847,-8.1133,-8.1041,-8.1063,-8.1103,-8.1132,-8.1154,-8.114,-8.0759,0,0,0,0,0,-8.0245,-8.0352,-8.0413,-8.0567,-8.0604,-8.0633,-8.0693,-8.069,-8.0761,-8.0789,-8.0833,-8.0903,-8.1004,-8.1071,-8.1167,-8.1357,-8.1371,-8.1442,-8.1465,-8.1483,-8.1501,-8.1603,-8.1634,-8.13,-8.13,-8.13,0,0,-8.0328,-8.0384,-8.0451,-8.0586,-8.0639,-8.0749,-8.0658,-8.0778,-8.0858,-8.0807,-8.0959,-8.0995,-8.1073,-8.1248,-8.1327,-8.1282,-8.1597,-8.1502,-8.1516,-8.1524,-8.1621,-8.1653,-8.1681,-8.131,-8.1309,-8.1307,0,0,-8.0536,-8.059,-8.0724,-8.078,-8.0863,-8.0882,-8.0915,-8.0989,-8.1011,-8.1165,-8.1128,-8.1225,-8.14,-8.1456,-8.1508,-8.1742,-8.1707,-8.1774,-8.1891,-8.199,-8.2016,-8.204,-8.212,-8.215,-8.1792,-8.1793,-8.1793,0,-8.0628,-8.0792,-8.0796,-8.0919,-8.0979,-8.0941,-8.1076,-8.113,-8.124,-8.1282,-8.1232,-8.1451,-8.1501,-8.1688,-8.1746,-8.179,-8.1826,-8.1762,-8.2013,-8.2036,-8.2058,-8.2134,-8.2165,-8.18,-8.1799,-8.1798,-8.1798,0,-8.0901,-8.1016,-8.1115,-8.1223,-8.1295,-8.1424,-8.1446,-8.1518,-8.151,-8.1534,-8.1691,-8.1751,-8.1858,-8.1904,-8.1895,-8.209,-8.206,-8.2012,-8.1919,-8.2097,-8.2169,-8.2198,-8.181,-8.1808,-8.1805,-8.1804,0,0,-8.1161,-8.1273,-8.1309,-8.1357,-8.1448,-8.1536,-8.1664,-8.1771,-8.1832,-8.1911,-8.2016,-8.2167,-8.2124,-8.2183,-8.2182,-8.227,-8.2448,-8.2211,-8.2212,-8.225,-8.2664,-8.2696,-8.2731,-8.2428,-8.2434,-8.2439,-8.2657,0,-8.1373,-8.1597,-8.1605,-8.1808,-8.1914,-8.1881,-8.1992,-8.206,-8.2088,-8.2181,-8.2211,-8.2317,-8.2253,-8.2288,-8.2375,-8.2408,-8.2531,-8.2393,-8.2523,-8.2528,-8.25,-8.2769,-8.2803,-8.3005,-8.2685,-8.269,-8.2693,0,-8.1648,-8.1737,-8.1951,-8.2027,-8.2072,-8.2172,-8.227,-8.2361,-8.2437,-8.2451,-8.2519,-8.2506,-8.2636,-8.2543,-8.2721,-8.2627,-8.2682,-8.2708,-8.2716,-8.2723,-8.2618,-8.278,-8.307,-8.3099,-8.2738,-8.2735,-8.2732,0,-8.1812,-8.1986,-8.2136,-8.218,-8.2273,-8.2344,-8.2386,-8.2457,-8.2521,-8.2608,-8.2649,-8.275,-8.2804,-8.2883,-8.2897,-8.2829,-8.3075,-8.2984,-8.3088,-8.3087,-8.3136,-8.3132,-8.3435,-8.318,-8.3179,-8.3179,-8.3178,0,-8.2045,-8.2176,-8.2211,-8.2303,-8.245,-8.246,-8.2604,-8.2641,-8.2705,-8.2803,-8.2783,-8.2875,-8.2891,-8.2987,-8.3,-8.3144,-8.317,-8.3183,-8.3184,-8.3182,-8.318,-8.3214,-8.3199,-8.3187,-8.3185,-8.3184,-8.3182,0,-8.225,-8.2279,-8.2441,-8.2518,-8.254,-8.2645,-8.271,-8.2798,-8.2825,-8.295,-8.298,-8.3022,-8.3134,-8.3158,-8.3291,-8.33,-8.347,-8.3459,-8.3444,-8.3441,-8.3543,-8.3531,-8.3874,-8.3918,-8.3639,-8.3641,-8.3644,0,-8.2394,-8.2495,-8.2583,-8.2648,-8.2694,-8.2799,-8.2865,-8.288,-8.2949,-8.3045,-8.3121,-8.3232,-8.332,-8.3502,-8.3543,-8.3645,-8.3634,-8.3748,-8.3649,-8.3644,-8.3631,-8.3623,-8.3632,-8.3764,-8.3767,-8.377,-8.3772,0,-8.2645,-8.2656,-8.2751,-8.2854,-8.2933,-8.3014,-8.309,-8.3145,-8.317,-8.3249,-8.3364,-8.3434,-8.3571,-8.368,-8.3783,-8.3825,-8.3802,-8.3804,-8.3833,-8.3829,-8.3814,-8.382,-8.3491,-8.3794,-8.3792,-8.379,-8.3789,-8.3788,-8.2822,-8.2909,-8.2986,-8.3093,-8.3154,-8.3227,-8.3313,-8.3352,-8.3449,-8.3562,-8.3566,-8.3691,-8.3766,-8.3902,-8.3952,-8.4049,-8.4014,-8.4056,-8.4066,-8.4075,-8.4082,-8.3804,-8.4069,-8.4068,-8.4068,-8.4067,-8.4067,0,-8.3068,-8.3117,-8.3217,-8.3325,-8.341,-8.3386,-8.347,-8.3542,-8.3653,-8.3726,-8.3815,-8.3947,-8.4054,-8.4107,-8.4212,-8.428,-8.4272,-8.4307,-8.4299,-8.4309,-8.411,-8.4073,-8.4312,-8.4312,-8.4311,-8.4311,-8.4311,-8.4311,-8.3206,-8.3353,-8.3373,-8.3549,-8.3597,-8.372,-8.377,-8.3837,-8.3895,-8.4044,-8.4134,-8.4168,-8.4233,-8.4343,-8.444,-8.4453,-8.4491,-8.453,-8.4537,-8.4349,-8.4323,-8.4299,-8.4264,-8.4539,-8.4539,-8.4727,-8.4729,-8.473]},{"header":{"parameterUnit":"m.s-1","parameterCategory":1,"la1":30.2991,"la2":30.254,"lo1":-89.0895,"lo2":-89.0444,"dy":0.0017,"dx":0.0017,"nx":28,"ny":28,"refTime":"2024-09-04T09:00:00:Z","depth":0,"parameterNumber":3,"parameterNumberName":"V-component_of_WINDS"},"data":[0,0,0,0,0,0,0,0,0,0,0,0,0,0,0,0,0,0,0,0,0,0,0,0,0,0,0,0,0,0,0,0,0,0,0,0,0,0,0,0,0,0,0,0,0,0,0,0,0,0,0,0,0,0,0,0,0,0,1.675,1.675,0,1.6794,1.6795,1.6795,1.6774,1.6773,1.6772,1.677,1.6815,1.6817,1.6819,0,0,0,0,0,0,0,0,0,0,0,0,0,1.6648,1.665,1.675,1.675,1.6751,1.6794,1.6795,1.6795,1.6774,1.6773,1.6771,1.677,1.6814,1.6817,1.6819,0,0,0,0,0,0,0,0,0,0,0,0,0,1.6692,1.6651,1.675,1.6746,1.6746,1.6794,1.6795,1.6795,1.6774,1.6773,1.6771,1.6769,1.6813,1.6816,1.682,1.6874,0,0,1.683,1.6831,0,0,0,0,0,0,0,0,1.669,1.6696,1.6746,1.6746,1.6746,1.6777,1.6775,1.6822,1.6775,1.6763,1.677,1.6768,1.6803,1.6807,1.6819,1.6876,1.6878,1.683,1.6832,1.6834,1.6835,0,0,0,0,0,0,0,1.6687,1.6694,1.6767,1.6746,1.6747,1.6742,1.6746,1.6784,1.6792,1.6764,1.6763,1.6768,1.6803,1.6816,1.682,1.6879,1.683,1.6833,1.6835,1.6837,1.6986,1.6987,0,0,0,0,0,0,1.6684,1.6692,1.6766,1.6769,1.6713,1.6745,1.675,1.6769,1.6792,1.6794,1.677,1.6767,1.6811,1.6816,1.6822,1.6889,1.6834,1.6837,1.6839,1.6984,1.6986,1.6988,0,0,0,0,0,0,1.6682,1.6691,1.6764,1.673,1.6739,1.6749,1.677,1.677,1.6783,1.6796,1.6797,1.6781,1.681,1.6817,1.6862,1.689,1.6838,1.6841,1.6981,1.6984,1.6987,1.7022,0,0,0,0,0,0,1.6679,1.669,1.671,1.673,1.6741,1.6803,1.6771,1.6772,1.6789,1.6786,1.6807,1.6809,1.6809,1.6857,1.6865,1.6894,1.6844,1.6979,1.6983,1.6986,1.7018,1.7026,1.7032,0,0,0,0,0,1.6675,1.6718,1.6711,1.6721,1.6766,1.6805,1.6811,1.681,1.6792,1.6813,1.6821,1.6809,1.6886,1.6862,1.6871,1.6901,1.6977,1.6982,1.6986,1.7015,1.7024,1.7032,0,0,0,0,0,0,1.67,1.672,1.6713,1.6763,1.6783,1.6801,1.6827,1.682,1.6844,1.684,1.6839,1.6844,1.6891,1.69,1.6873,1.6956,1.6929,1.6935,1.6948,1.6957,1.6963,1.696,1.6847,0,0,0,0,0,1.6711,1.6741,1.6757,1.68,1.681,1.6817,1.6834,1.6832,1.6852,1.686,1.6871,1.6891,1.692,1.6939,1.6966,1.702,1.7025,1.7045,1.7052,1.7058,1.7063,1.7094,1.7104,1.7003,1.7003,1.7002,0,0,1.6734,1.6749,1.6768,1.6805,1.682,1.6851,1.6824,1.6857,1.6881,1.6865,1.6908,1.6918,1.694,1.699,1.7013,1.7,1.7092,1.7063,1.7067,1.707,1.71,1.7109,1.7118,1.7006,1.7005,1.7005,0,0,1.6793,1.6807,1.6845,1.6861,1.6884,1.6889,1.6898,1.6919,1.6925,1.6969,1.6958,1.6986,1.7035,1.7052,1.7067,1.7135,1.7125,1.7144,1.718,1.721,1.7218,1.7225,1.7251,1.726,1.715,1.715,1.715,0,1.6819,1.6865,1.6865,1.6901,1.6918,1.6906,1.6945,1.6961,1.6991,1.7004,1.6989,1.7052,1.7066,1.7121,1.7138,1.715,1.7161,1.7141,1.7217,1.7224,1.7231,1.7255,1.7264,1.7152,1.7152,1.7152,1.7151,0,1.6897,1.693,1.6958,1.6989,1.7009,1.7046,1.7053,1.7074,1.7071,1.7078,1.7124,1.7141,1.7172,1.7185,1.7182,1.724,1.7232,1.7217,1.7189,1.7243,1.7265,1.7275,1.7155,1.7154,1.7154,1.7153,0,0,1.697,1.7003,1.7013,1.7028,1.7054,1.7079,1.7117,1.7148,1.7167,1.7189,1.7221,1.7264,1.7252,1.7269,1.7268,1.7295,1.735,1.7277,1.7278,1.7291,1.7417,1.7428,1.7438,1.7344,1.7345,1.7347,1.7415,0,1.7031,1.7096,1.7099,1.7159,1.719,1.7181,1.7213,1.7233,1.7242,1.727,1.7279,1.731,1.729,1.7301,1.7327,1.7338,1.7375,1.7333,1.7374,1.7375,1.7368,1.745,1.7461,1.7525,1.7424,1.7425,1.7426,0,1.711,1.7136,1.72,1.7224,1.7237,1.7266,1.7296,1.7323,1.7346,1.7351,1.7371,1.7368,1.7407,1.7379,1.7433,1.7404,1.7422,1.743,1.7432,1.7436,1.7404,1.7456,1.7545,1.7554,1.744,1.7439,1.7438,0,1.7158,1.7209,1.7254,1.7268,1.7296,1.7317,1.733,1.7352,1.7372,1.7398,1.7411,1.7442,1.7459,1.7483,1.7488,1.7467,1.7543,1.7515,1.7548,1.7548,1.7564,1.7563,1.7657,1.7575,1.7575,1.7575,1.7574,0,1.7226,1.7265,1.7277,1.7304,1.7349,1.7352,1.7396,1.7408,1.7428,1.7458,1.7452,1.748,1.7485,1.7515,1.752,1.7565,1.7572,1.7577,1.7578,1.7578,1.7577,1.7589,1.7584,1.7577,1.7577,1.7576,1.7576,0,1.7286,1.7296,1.7344,1.7369,1.7376,1.7407,1.7428,1.7455,1.7464,1.7503,1.7512,1.7526,1.7561,1.7569,1.761,1.7613,1.7667,1.7663,1.766,1.7659,1.7692,1.7689,1.7797,1.7811,1.772,1.7721,1.7722,0,1.7329,1.7359,1.7387,1.7408,1.7422,1.7454,1.7475,1.748,1.7502,1.7532,1.7556,1.7591,1.7619,1.7676,1.769,1.7722,1.7719,1.7755,1.7724,1.7724,1.7721,1.7719,1.7722,1.7761,1.7762,1.7762,1.7763,0,1.7404,1.7407,1.7437,1.747,1.7495,1.752,1.7544,1.7562,1.757,1.7595,1.7632,1.7654,1.7698,1.7733,1.7766,1.7779,1.7773,1.7773,1.7783,1.7782,1.7779,1.7782,1.7676,1.777,1.7769,1.7769,1.7769,1.7768,1.7457,1.7484,1.7509,1.7543,1.7562,1.7586,1.7613,1.7626,1.7657,1.7693,1.7695,1.7735,1.776,1.7804,1.782,1.7852,1.7841,1.7854,1.7858,1.7861,1.7864,1.7775,1.7858,1.7858,1.7857,1.7857,1.7857,0,1.7532,1.7548,1.7579,1.7614,1.7642,1.7635,1.7662,1.7685,1.7721,1.7745,1.7774,1.7817,1.7852,1.7869,1.7904,1.7926,1.7924,1.7935,1.7933,1.7937,1.7872,1.786,1.7936,1.7936,1.7936,1.7936,1.7936,1.7936,1.7574,1.762,1.7627,1.7684,1.77,1.774,1.7756,1.7779,1.7798,1.7847,1.7876,1.7887,1.7909,1.7946,1.7978,1.7982,1.7996,1.8008,1.8011,1.795,1.7941,1.7934,1.7923,1.8011,1.8011,1.8074,1.8074,1.8075]}]]